Time,TemperatureF,DewpointF,PressureIn,WindDirection,WindDirectionDegrees,WindSpeedMPH,WindSpeedGustMPH,Humidity,HourlyPrecipIn,Conditions,Clouds,dailyrainin,SoftwareType,DateUTC
2013-04-23 00:02:00,30.0,29.0,-100.00,WNW,290,9.0,12.0,98,0.00,,,-99.99,,2013-04-23 06:02:00,
2013-04-23 00:12:00,30.0,29.0,-100.00,WNW,290,11.0,14.0,98,0.10,,,-99.99,,2013-04-23 06:12:00,
2013-04-23 00:21:00,29.0,29.0,-100.00,WNW,300,16.0,19.0,99,0.10,,,-99.99,,2013-04-23 06:21:00,
2013-04-23 00:33:00,29.0,29.0,-100.00,WNW,300,9.0,19.0,99,0.10,,,-99.99,,2013-04-23 06:33:00,
2013-04-23 00:42:00,29.0,29.0,-100.00,NW,305,13.0,16.0,99,0.00,,,-99.99,,2013-04-23 06:42:00,
2013-04-23 00:52:00,29.0,29.0,-100.00,WNW,300,14.0,17.0,99,0.00,,,-99.99,,2013-04-23 06:52:00,
2013-04-23 01:02:00,29.0,29.0,-100.00,WNW,300,15.0,17.0,99,0.00,,,-99.99,,2013-04-23 07:02:00,
2013-04-23 01:11:00,29.0,29.0,-100.00,WNW,290,13.0,21.0,99,0.00,,,-99.99,,2013-04-23 07:11:00,
2013-04-23 01:21:00,29.0,29.0,-100.00,WNW,295,14.0,20.0,99,0.00,,,-99.99,,2013-04-23 07:21:00,
2013-04-23 01:32:00,29.0,29.0,-100.00,WNW,295,14.0,17.0,99,0.00,,,-99.99,,2013-04-23 07:32:00,
2013-04-23 01:42:00,29.0,29.0,-100.00,WNW,285,9.0,15.0,99,0.00,,,-99.99,,2013-04-23 07:42:00,
2013-04-23 01:52:00,29.0,29.0,-100.00,WNW,285,6.0,11.0,99,0.00,,,-99.99,,2013-04-23 07:52:00,
2013-04-23 02:02:00,29.0,29.0,-100.00,SW,230,1.0,7.0,99,0.00,,,-99.99,,2013-04-23 08:02:00,
2013-04-23 02:11:00,29.0,29.0,-100.00,ENE,75,3.0,4.0,99,0.00,,,-99.99,,2013-04-23 08:11:00,
2013-04-23 02:21:00,29.0,29.0,-100.00,East,95,0.0,4.0,99,0.00,,,-99.99,,2013-04-23 08:21:00,
2013-04-23 02:32:00,29.0,29.0,-100.00,East,95,0.0,0.0,99,0.00,,,-99.99,,2013-04-23 08:32:00,
2013-04-23 02:42:00,29.0,29.0,-100.00,East,95,1.0,2.0,99,0.00,,,-99.99,,2013-04-23 08:42:00,
2013-04-23 02:52:00,28.0,28.0,-100.00,SE,135,0.0,4.0,99,0.00,,,-99.99,,2013-04-23 08:52:00,
2013-04-23 03:01:00,29.0,29.0,-100.00,WNW,295,9.0,12.0,99,0.00,,,-99.99,,2013-04-23 09:01:00,
2013-04-23 03:11:00,28.0,28.0,-100.00,WNW,295,14.0,16.0,99,0.00,,,-99.99,,2013-04-23 09:11:00,
2013-04-23 03:21:00,27.0,27.0,-100.00,WNW,300,13.0,16.0,99,0.00,,,-99.99,,2013-04-23 09:21:00,
2013-04-23 03:33:00,27.0,27.0,-100.00,WNW,290,11.0,16.0,99,0.00,,,-99.99,,2013-04-23 09:33:00,
2013-04-23 03:43:00,27.0,27.0,-100.00,WNW,285,10.0,14.0,99,0.00,,,-99.99,,2013-04-23 09:43:00,
2013-04-23 03:52:00,26.0,26.0,-100.00,WNW,300,12.0,15.0,99,0.00,,,-99.99,,2013-04-23 09:52:00,
2013-04-23 04:02:00,26.0,26.0,-100.00,WNW,300,12.0,14.0,99,0.00,,,-99.99,,2013-04-23 10:02:00,
2013-04-23 04:13:00,26.0,26.0,-100.00,NW,305,10.0,13.0,99,0.00,,,-99.99,,2013-04-23 10:13:00,
2013-04-23 04:22:00,26.0,26.0,-100.00,WNW,295,9.0,10.0,99,0.00,,,-99.99,,2013-04-23 10:22:00,
2013-04-23 04:33:00,26.0,26.0,-100.00,WNW,300,8.0,9.0,99,0.00,,,-99.99,,2013-04-23 10:33:00,
2013-04-23 04:42:00,26.0,26.0,-100.00,WNW,300,9.0,10.0,99,0.00,,,-99.99,,2013-04-23 10:42:00,
2013-04-23 04:52:00,26.0,26.0,-100.00,WNW,300,11.0,12.0,99,0.00,,,-99.99,,2013-04-23 10:52:00,
2013-04-23 05:03:00,26.0,26.0,-100.00,WNW,295,10.0,12.0,99,0.00,,,-99.99,,2013-04-23 11:03:00,
2013-04-23 05:12:00,25.0,25.0,-100.00,WNW,290,9.0,11.0,99,0.00,,,-99.99,,2013-04-23 11:12:00,
2013-04-23 05:21:00,25.0,25.0,-100.00,WNW,290,9.0,11.0,99,0.00,,,-99.99,,2013-04-23 11:21:00,
2013-04-23 05:32:00,25.0,25.0,-100.00,WNW,295,11.0,12.0,99,0.00,,,-99.99,,2013-04-23 11:32:00,
2013-04-23 05:42:00,25.0,25.0,-100.00,WNW,300,11.0,12.0,99,0.00,,,-99.99,,2013-04-23 11:42:00,
2013-04-23 05:52:00,25.0,25.0,-100.00,WNW,295,12.0,15.0,99,0.00,,,-99.99,,2013-04-23 11:52:00,
2013-04-23 06:02:00,25.0,25.0,-100.00,WNW,295,11.0,17.0,99,0.00,,,-99.99,,2013-04-23 12:02:00,
2013-04-23 06:12:00,25.0,25.0,-100.00,WNW,300,10.0,17.0,99,0.00,,,-99.99,,2013-04-23 12:12:00,
2013-04-23 06:22:00,25.0,25.0,-100.00,WNW,295,9.0,13.0,99,0.00,,,-99.99,,2013-04-23 12:22:00,
2013-04-23 06:32:00,25.0,25.0,-100.00,WNW,300,9.0,12.0,99,0.00,,,-99.99,,2013-04-23 12:32:00,
2013-04-23 06:42:00,25.0,25.0,-100.00,WNW,295,14.0,16.0,99,0.10,,,-99.99,,2013-04-23 12:42:00,
2013-04-23 06:52:00,24.0,24.0,-100.00,WNW,290,12.0,16.0,99,0.10,,,-99.99,,2013-04-23 12:52:00,
2013-04-23 07:01:00,24.0,24.0,-100.00,WNW,295,14.0,17.0,99,0.10,,,-99.99,,2013-04-23 13:01:00,
2013-04-23 07:11:00,23.0,23.0,-100.00,WNW,295,14.0,17.0,99,0.00,,,-99.99,,2013-04-23 13:11:00,
2013-04-23 07:21:00,23.0,23.0,-100.00,WNW,295,8.0,15.0,99,0.00,,,-99.99,,2013-04-23 13:21:00,
2013-04-23 07:32:00,23.0,23.0,-100.00,WNW,300,9.0,12.0,99,0.00,,,-99.99,,2013-04-23 13:32:00,
2013-04-23 07:42:00,23.0,23.0,-100.00,West,275,10.0,14.0,99,0.00,,,-99.99,,2013-04-23 13:42:00,
2013-04-23 07:52:00,23.0,23.0,-100.00,WNW,285,9.0,12.0,99,0.00,,,-99.99,,2013-04-23 13:52:00,
2013-04-23 08:02:00,23.0,23.0,-100.00,WNW,290,10.0,12.0,99,0.00,,,-99.99,,2013-04-23 14:02:00,
2013-04-23 08:11:00,23.0,23.0,-100.00,WNW,295,13.0,15.0,99,0.00,,,-99.99,,2013-04-23 14:11:00,
2013-04-23 08:22:00,22.0,22.0,-100.00,WNW,295,12.0,18.0,99,0.00,,,-99.99,,2013-04-23 14:22:00,
2013-04-23 08:32:00,23.0,23.0,-100.00,WNW,285,9.0,16.0,99,0.00,,,-99.99,,2013-04-23 14:32:00,
2013-04-23 08:42:00,23.0,23.0,-100.00,WNW,295,11.0,14.0,99,0.00,,,-99.99,,2013-04-23 14:42:00,
2013-04-23 08:52:00,23.0,23.0,-100.00,WNW,295,9.0,12.0,99,0.00,,,-99.99,,2013-04-23 14:52:00,
2013-04-23 09:01:00,23.0,23.0,-100.00,WNW,295,9.0,12.0,99,0.00,,,-99.99,,2013-04-23 15:01:00,
2013-04-23 09:12:00,23.0,23.0,-100.00,NW,305,8.0,12.0,99,0.00,,,-99.99,,2013-04-23 15:12:00,
2013-04-23 09:21:00,23.0,23.0,-100.00,WNW,290,9.0,13.0,99,0.00,,,-99.99,,2013-04-23 15:21:00,
2013-04-23 09:32:00,23.0,23.0,-100.00,WNW,285,11.0,15.0,99,0.00,,,-99.99,,2013-04-23 15:32:00,
2013-04-23 09:42:00,23.0,23.0,-100.00,WNW,295,12.0,14.0,98,0.00,,,-99.99,,2013-04-23 15:42:00,
2013-04-23 09:53:00,23.0,22.0,-100.00,WNW,300,12.0,15.0,96,0.00,,,-99.99,,2013-04-23 15:53:00,
2013-04-23 10:03:00,24.0,23.0,-100.00,WNW,290,11.0,16.0,96,0.00,,,-99.99,,2013-04-23 16:03:00,
2013-04-23 10:12:00,24.0,23.0,-100.00,WNW,295,11.0,15.0,96,0.00,,,-99.99,,2013-04-23 16:12:00,
2013-04-23 10:23:00,23.0,22.0,-100.00,WNW,300,14.0,18.0,94,0.00,,,-99.99,,2013-04-23 16:23:00,
2013-04-23 10:34:00,24.0,22.0,-100.00,WNW,295,12.0,17.0,93,0.00,,,-99.99,,2013-04-23 16:34:00,
2013-04-23 10:43:00,24.0,22.0,-100.00,WNW,300,12.0,15.0,92,0.00,,,-99.99,,2013-04-23 16:43:00,
2013-04-23 10:52:00,25.0,21.0,-100.00,WNW,300,12.0,14.0,87,0.00,,,-99.99,,2013-04-23 16:52:00,
2013-04-23 11:02:00,24.0,20.0,-100.00,WNW,300,12.0,14.0,83,0.00,,,-99.99,,2013-04-23 17:02:00,
2013-04-23 11:11:00,25.0,19.0,-100.00,WNW,295,10.0,16.0,77,0.00,,,-99.99,,2013-04-23 17:11:00,
2013-04-23 11:22:00,26.0,18.0,-100.00,WNW,290,11.0,16.0,71,0.00,,,-99.99,,2013-04-23 17:22:00,
2013-04-23 11:32:00,27.0,18.0,-100.00,WNW,295,12.0,18.0,68,0.00,,,-99.99,,2013-04-23 17:32:00,
2013-04-23 11:42:00,28.0,19.0,-100.00,WNW,300,7.0,18.0,66,0.00,,,-99.99,,2013-04-23 17:42:00,
2013-04-23 11:53:00,28.0,17.0,-100.00,NW,305,9.0,15.0,64,0.00,,,-99.99,,2013-04-23 17:53:00,
2013-04-23 12:02:00,30.0,19.0,-100.00,WNW,285,9.0,15.0,63,0.00,,,-99.99,,2013-04-23 18:02:00,
2013-04-23 12:12:00,31.0,19.0,-100.00,WNW,295,9.0,16.0,61,0.00,,,-99.99,,2013-04-23 18:12:00,
2013-04-23 12:22:00,30.0,17.0,-100.00,NW,315,9.0,12.0,56,0.00,,,-99.99,,2013-04-23 18:22:00,
2013-04-23 12:32:00,31.0,17.0,-100.00,WNW,300,10.0,14.0,55,0.00,,,-99.99,,2013-04-23 18:32:00,
2013-04-23 12:42:00,31.0,16.0,-100.00,WNW,300,11.0,17.0,54,0.00,,,-99.99,,2013-04-23 18:42:00,
2013-04-23 12:52:00,31.0,17.0,-100.00,WNW,290,14.0,18.0,55,0.00,,,-99.99,,2013-04-23 18:52:00,
2013-04-23 13:02:00,31.0,17.0,-100.00,WNW,295,12.0,17.0,55,0.00,,,-99.99,,2013-04-23 19:02:00,
2013-04-23 13:11:00,32.0,17.0,-100.00,WNW,295,11.0,15.0,53,0.00,,,-99.99,,2013-04-23 19:11:00,
2013-04-23 13:22:00,32.0,17.0,-100.00,WNW,295,17.0,21.0,51,0.00,,,-99.99,,2013-04-23 19:22:00,
2013-04-23 13:32:00,32.0,17.0,-100.00,WNW,285,11.0,21.0,52,0.00,,,-99.99,,2013-04-23 19:32:00,
2013-04-23 13:42:00,32.0,17.0,-100.00,WNW,295,15.0,18.0,52,0.00,,,-99.99,,2013-04-23 19:42:00,
2013-04-23 13:52:00,32.0,16.0,-100.00,WNW,295,13.0,17.0,52,0.00,,,-99.99,,2013-04-23 19:52:00,
2013-04-23 14:02:00,33.0,16.0,-100.00,WNW,295,11.0,17.0,50,0.00,,,-99.99,,2013-04-23 20:02:00,
2013-04-23 14:11:00,31.0,15.0,-100.00,WNW,295,17.0,22.0,50,0.00,,,-99.99,,2013-04-23 20:11:00,
2013-04-23 14:22:00,33.0,17.0,-100.00,WNW,295,12.0,19.0,52,0.00,,,-99.99,,2013-04-23 20:22:00,
2013-04-23 14:32:00,32.0,17.0,-100.00,WNW,290,18.0,22.0,54,0.00,,,-99.99,,2013-04-23 20:32:00,
2013-04-23 14:42:00,32.0,17.0,-100.00,WNW,285,17.0,23.0,54,0.00,,,-99.99,,2013-04-23 20:42:00,
2013-04-23 14:52:00,32.0,17.0,-100.00,West,280,14.0,19.0,54,0.00,,,-99.99,,2013-04-23 20:52:00,
2013-04-23 15:02:00,32.0,18.0,-100.00,WNW,300,17.0,28.0,55,0.00,,,-99.99,,2013-04-23 21:02:00,
2013-04-23 15:12:00,31.0,19.0,-100.00,WNW,300,12.0,21.0,59,0.00,,,-99.99,,2013-04-23 21:12:00,
2013-04-23 15:21:00,32.0,19.0,-100.00,WNW,295,11.0,17.0,57,0.00,,,-99.99,,2013-04-23 21:21:00,
2013-04-23 15:33:00,31.0,17.0,-100.00,WNW,295,12.0,17.0,55,0.00,,,-99.99,,2013-04-23 21:33:00,
2013-04-23 15:43:00,31.0,17.0,-100.00,WNW,285,12.0,22.0,54,0.00,,,-99.99,,2013-04-23 21:43:00,
2013-04-23 15:52:00,31.0,17.0,-100.00,WNW,285,11.0,23.0,54,0.00,,,-99.99,,2013-04-23 21:52:00,
2013-04-23 16:03:00,31.0,17.0,-100.00,WNW,295,15.0,22.0,53,0.00,,,-99.99,,2013-04-23 22:03:00,
2013-04-23 16:12:00,32.0,17.0,-100.00,WNW,295,12.0,21.0,52,0.00,,,-99.99,,2013-04-23 22:12:00,
2013-04-23 16:22:00,32.0,16.0,-100.00,WNW,285,14.0,23.0,51,0.00,,,-99.99,,2013-04-23 22:22:00,
2013-04-23 16:33:00,33.0,16.0,-100.00,WNW,290,14.0,20.0,49,0.00,,,-99.99,,2013-04-23 22:33:00,
2013-04-23 16:42:00,32.0,15.0,-100.00,WNW,285,17.0,24.0,48,0.00,,,-99.99,,2013-04-23 22:42:00,
2013-04-23 16:52:00,33.0,16.0,-100.00,WNW,295,14.0,23.0,49,0.00,,,-99.99,,2013-04-23 22:52:00,
2013-04-23 17:03:00,33.0,16.0,-100.00,West,280,16.0,21.0,48,0.00,,,-99.99,,2013-04-23 23:03:00,
2013-04-23 17:12:00,33.0,15.0,-100.00,West,275,12.0,20.0,47,0.00,,,-99.99,,2013-04-23 23:12:00,
2013-04-23 17:22:00,33.0,15.0,-100.00,WNW,290,10.0,17.0,47,0.00,,,-99.99,,2013-04-23 23:22:00,
2013-04-23 17:32:00,32.0,14.0,-100.00,WNW,285,12.0,17.0,46,0.00,,,-99.99,,2013-04-23 23:32:00,
2013-04-23 17:42:00,33.0,14.0,-100.00,WNW,290,13.0,17.0,43,0.00,,,-99.99,,2013-04-23 23:42:00,
2013-04-23 17:52:00,34.0,14.0,-100.00,WNW,295,9.0,18.0,42,0.00,,,-99.99,,2013-04-23 23:52:00,
2013-04-23 18:01:00,34.0,13.0,-100.00,WNW,290,13.0,17.0,41,0.00,,,-99.99,,2013-04-24 00:01:00,
2013-04-23 18:11:00,33.0,11.0,-100.00,WNW,285,12.0,18.0,40,0.00,,,-99.99,,2013-04-24 00:11:00,
2013-04-23 18:22:00,33.0,11.0,-100.00,WNW,295,10.0,18.0,40,0.00,,,-99.99,,2013-04-24 00:22:00,
2013-04-23 18:32:00,34.0,11.0,-100.00,WNW,285,15.0,19.0,39,0.00,,,-99.99,,2013-04-24 00:32:00,
2013-04-23 18:41:00,33.0,10.0,-100.00,West,280,11.0,20.0,38,0.00,,,-99.99,,2013-04-24 00:41:00,
2013-04-23 18:52:00,32.0,9.0,-100.00,WNW,290,10.0,19.0,38,0.00,,,-99.99,,2013-04-24 00:52:00,
2013-04-23 19:01:00,31.0,10.0,-100.00,WNW,285,7.0,21.0,38,0.00,,,-99.99,,2013-04-24 01:01:00,
2013-04-23 19:11:00,31.0,9.0,-100.00,WNW,285,11.0,20.0,38,0.00,,,-99.99,,2013-04-24 01:11:00,
2013-04-23 19:21:00,31.0,10.0,-100.00,WNW,290,11.0,19.0,39,0.00,,,-99.99,,2013-04-24 01:21:00,
2013-04-23 19:32:00,31.0,9.0,-100.00,WNW,295,9.0,22.0,39,0.00,,,-99.99,,2013-04-24 01:32:00,
2013-04-23 19:42:00,30.0,9.0,-100.00,South,185,4.0,17.0,40,0.00,,,-99.99,,2013-04-24 01:42:00,
2013-04-23 19:52:00,29.0,9.0,-100.00,ESE,115,2.0,5.0,42,0.00,,,-99.99,,2013-04-24 01:52:00,
2013-04-23 20:02:00,29.0,10.0,-100.00,ESE,110,1.0,6.0,42,0.00,,,-99.99,,2013-04-24 02:02:00,
2013-04-23 20:17:00,29.0,9.0,-100.00,ENE,60,2.0,3.0,43,0.00,,,-99.99,,2013-04-24 02:17:00,
2013-04-23 20:29:00,28.0,9.0,-100.00,SSE,150,3.0,4.0,44,0.00,,,-99.99,,2013-04-24 02:29:00,
2013-04-23 20:39:00,28.0,10.0,-100.00,SE,145,1.0,4.0,46,0.00,,,-99.99,,2013-04-24 02:39:00,
2013-04-23 20:46:00,26.0,10.0,-100.00,South,190,1.0,3.0,49,0.00,,,-99.99,,2013-04-24 02:46:00,
2013-04-23 20:56:00,25.0,10.0,-100.00,SSE,150,2.0,3.0,53,0.00,,,-99.99,,2013-04-24 02:56:00,
2013-04-23 21:09:00,24.0,10.0,-100.00,South,170,2.0,4.0,54,0.00,,,-99.99,,2013-04-24 03:09:00,
2013-04-23 21:16:00,24.0,10.0,-100.00,ESE,110,2.0,3.0,56,0.00,,,-99.99,,2013-04-24 03:16:00,
2013-04-23 21:40:00,22.0,11.0,-100.00,SE,135,1.0,3.0,60,0.00,,,-99.99,,2013-04-24 03:40:00,
2013-04-23 21:49:00,22.0,10.0,-100.00,ESE,110,1.0,4.0,61,0.00,,,-99.99,,2013-04-24 03:49:00,
2013-04-23 22:03:00,23.0,12.0,-100.00,East,95,4.0,11.0,61,0.00,,,-99.99,,2013-04-24 04:03:00,
2013-04-23 22:12:00,22.0,10.0,-100.00,ESE,110,2.0,7.0,60,0.00,,,-99.99,,2013-04-24 04:12:00,
2013-04-23 22:23:00,20.0,9.0,-100.00,ESE,105,4.0,5.0,60,0.00,,,-99.99,,2013-04-24 04:23:00,
2013-04-23 22:33:00,21.0,10.0,-100.00,East,95,2.0,8.0,61,0.00,,,-99.99,,2013-04-24 04:33:00,
2013-04-23 22:43:00,20.0,9.0,-100.00,ESE,105,2.0,6.0,62,0.00,,,-99.99,,2013-04-24 04:43:00,
2013-04-23 22:52:00,19.0,8.0,-100.00,East,95,3.0,4.0,62,0.00,,,-99.99,,2013-04-24 04:52:00,
2013-04-23 23:02:00,19.0,9.0,-100.00,ESE,105,3.0,4.0,63,0.00,,,-99.99,,2013-04-24 05:02:00,
2013-04-23 23:12:00,19.0,9.0,-100.00,East,95,3.0,5.0,64,0.00,,,-99.99,,2013-04-24 05:12:00,
2013-04-23 23:22:00,20.0,10.0,-100.00,NE,45,6.0,9.0,64,0.00,,,-99.99,,2013-04-24 05:22:00,
2013-04-23 23:32:00,20.0,10.0,-100.00,East,100,6.0,11.0,64,0.00,,,-99.99,,2013-04-24 05:32:00,
2013-04-23 23:42:00,19.0,9.0,-100.00,ENE,60,9.0,12.0,64,0.00,,,-99.99,,2013-04-24 05:42:00,
2013-04-23 23:52:00,19.0,9.0,-100.00,ENE,60,7.0,11.0,63,0.00,,,-99.99,,2013-04-24 05:52:00,